GFSMA_sfc_thetae_159.txt.gz
Theta_e
333 331 330 329 329 329 328 329 329 328 328 326 327 325 324 324 324 325 326 318 322 325 328 329 331 330 329 331 329 326 325 324 323 322 321 322 321 321 320 320 320 319 318
333 331 330 329 328 328 328 327 327 327 327 327 325 325 324 324 324 325 325 326 321 324 326 329 330 331 331 330 332 330 328 326 324 323 322 322 322 322 321 321 321 321 320
333 331 331 331 330 330 329 328 327 326 325 325 325 325 325 325 324 323 324 325 326 320 323 326 328 330 332 332 330 332 332 329 326 324 323 323 323 323 322 322 321 321 320
335 333 332 331 332 331 329 328 326 325 324 324 324 325 325 326 326 325 324 324 325 325 323 324 326 328 330 331 332 330 331 332 329 327 327 326 325 324 323 323 322 322 321
334 334 333 333 332 330 329 329 327 326 324 324 324 325 325 325 325 324 323 323 324 325 325 324 322 323 327 329 331 332 331 331 333 331 329 328 327 325 325 324 324 323 322
335 333 333 332 331 330 329 328 328 328 326 325 322 323 324 325 326 325 324 324 323 323 324 325 325 320 320 327 329 331 332 331 332 332 331 330 329 328 328 328 325 325 325
335 333 331 331 331 329 329 330 327 325 325 326 321 321 323 325 325 325 324 324 324 324 324 323 325 325 324 323 326 329 331 332 333 332 332 331 330 330 330 330 329 328 328
332 331 331 330 330 328 327 327 325 323 323 325 318 316 312 318 322 324 325 324 323 324 324 324 323 324 324 324 322 326 329 331 333 333 332 331 331 331 331 331 330 330 330
331 331 330 329 329 328 326 325 325 323 319 322 322 317 309 307 313 319 320 321 323 322 323 323 323 323 322 322 323 323 324 327 331 332 332 332 332 332 332 332 332 331 331
330 330 330 329 328 328 327 326 326 325 323 319 320 320 320 318 311 310 314 315 318 319 321 321 322 322 323 322 319 316 316 321 323 326 328 330 332 332 333 332 332 331 331
329 327 327 329 328 328 327 326 325 324 324 321 319 317 315 316 317 313 310 314 318 319 319 320 321 322 322 321 321 318 314 317 317 318 321 324 327 330 332 332 332 332 332
311 309 313 315 322 325 325 325 325 324 323 321 321 320 317 313 312 312 311 312 313 316 320 321 320 320 320 321 316 310 312 315 317 317 316 318 321 324 328 330 331 332 332
303 303 306 308 311 313 314 318 322 324 324 322 321 320 320 319 319 317 314 313 312 315 316 320 321 322 322 321 320 308 308 312 315 315 315 315 317 318 321 325 327 328 329
298 300 300 302 303 304 305 307 311 315 315 319 321 321 320 320 320 318 315 313 310 312 314 315 319 320 321 320 316 307 316 309 312 314 315 314 315 316 317 320 322 324 325
294 296 297 298 299 299 300 300 303 304 306 309 310 311 312 316 319 319 319 317 312 307 308 314 315 319 320 320 317 318 318 311 310 312 312 312 313 314 315 317 319 321 323
291 292 293 295 295 296 296 297 299 301 299 299 299 300 300 302 305 310 313 315 315 312 308 314 315 318 319 317 315 315 317 306 306 309 310 310 311 312 313 314 316 318 320
288 289 290 291 292 292 293 294 293 294 294 295 296 296 296 297 297 299 302 304 306 309 307 311 315 317 317 317 318 315 314 316 316 306 308 309 309 309 310 311 313 314 316
287 287 288 288 288 288 290 289 289 289 290 290 291 292 292 293 294 296 296 294 295 297 297 296 302 307 313 316 317 317 316 313 314 311 309 309 309 308 308 309 310 311 311
284 285 285 285 286 287 286 286 287 287 288 288 289 289 290 291 291 291 291 292 293 294 293 292 293 299 303 308 311 314 314 315 313 305 308 306 306 306 307 307 307 307 307
282 283 283 283 284 284 284 284 284 285 286 287 289 289 289 289 288 288 289 289 289 289 290 289 290 291 294 298 299 298 303 308 307 308 303 302 304 302 304 305 305 303 304
281 281 281 282 282 282 283 283 284 284 285 285 286 286 287 285 286 287 287 286 287 286 286 286 286 288 289 290 292 296 297 301 304 307 305 302 299 300 302 301 300 300 302
280 280 280 280 280 281 283 284 283 283 282 282 282 283 283 284 284 284 285 285 285 284 284 285 286 285 286 288 290 291 291 291 290 301 300 302 296 298 299 300 301 302 302
279 279 279 279 279 280 282 282 282 281 281 281 281 281 281 282 282 282 282 283 283 284 285 284 283 285 286 288 288 287 286 286 286 291 293 294 292 296 298 297 300 301 301
277 277 278 278 279 279 280 281 281 280 280 279 280 280 279 279 280 280 280 280 281 282 284 284 284 285 286 288 287 286 286 286 287 289 292 290 298 294 297 295 297 299 300
276 276 277 277 276 277 279 280 279 278 278 278 278 278 278 278 279 280 278 277 277 279 282 283 284 287 289 289 289 287 285 284 283 285 290 290 294 290 286 292 292 297 299
275 276 276 276 276 275 277 279 279 277 276 276 276 277 278 277 278 279 277 275 273 275 276 276 279 281 285 287 289 288 287 284 284 284 289 288 292 285 287 285 288 290 294

GFSMA_sfc_thetae_162.txt.gz
Theta_e
325 324 324 323 323 324 323 322 323 324 323 323 322 322 320 319 318 318 319 317 323 329 329 330 331 332 331 331 332 330 328 326 325 323 323 323 323 322 322 322 321 321 320
326 325 324 323 322 322 322 321 321 321 320 321 321 321 320 319 319 318 319 319 321 326 329 330 331 332 332 333 331 333 332 329 327 325 324 323 323 323 323 322 322 322 322
328 326 325 324 323 323 322 321 321 320 319 320 319 320 320 320 319 318 318 318 319 320 325 329 330 331 332 332 333 332 333 333 329 328 327 326 324 323 324 323 322 323 322
331 330 326 325 326 324 323 321 320 319 318 318 318 318 319 320 320 321 320 320 320 321 322 326 329 330 330 332 333 333 333 334 334 332 329 328 327 325 325 325 324 323 323
332 331 329 329 329 327 326 325 322 320 318 317 318 319 319 319 319 322 321 322 321 321 321 323 322 324 329 330 332 332 333 335 334 334 331 329 328 328 327 327 327 325 325
333 331 330 330 329 327 326 325 324 324 320 318 320 319 319 321 321 320 321 322 321 320 320 320 321 319 320 328 330 331 332 334 334 332 333 331 330 329 328 328 328 328 326
332 331 331 329 328 326 326 326 325 324 323 323 320 320 321 323 323 323 321 322 321 323 321 321 321 322 322 324 328 330 332 333 335 333 333 332 332 331 330 330 329 330 329
331 331 330 329 328 327 326 326 324 322 322 323 318 316 312 316 320 322 322 323 321 322 322 322 322 321 322 322 321 326 330 331 334 334 333 333 332 332 332 332 331 331 330
330 329 330 328 328 327 326 325 324 322 320 321 322 317 310 307 311 318 320 322 322 322 321 321 321 321 321 321 322 322 324 328 331 332 333 333 332 333 333 333 332 332 331
329 328 328 328 327 327 325 325 325 324 322 319 319 321 321 318 312 310 314 315 317 318 319 319 319 318 320 320 317 314 315 320 323 326 328 330 332 332 333 333 332 332 332
309 311 314 317 321 325 326 325 324 323 323 322 320 317 315 317 317 312 310 312 316 317 318 319 319 320 320 320 321 317 314 316 318 319 321 324 327 330 331 332 332 332 332
303 303 305 308 310 311 312 315 320 322 321 321 321 320 317 313 312 311 310 312 311 314 317 319 319 319 319 319 316 310 313 315 317 317 318 319 321 324 327 328 330 332 332
297 298 299 301 301 302 303 303 309 310 308 310 311 313 316 317 317 316 314 311 310 313 312 315 318 319 320 321 319 308 309 312 315 316 316 316 318 319 321 324 326 327 328
293 294 295 296 297 297 297 299 301 301 302 300 299 299 303 304 303 305 306 306 307 309 312 311 314 316 318 319 317 307 315 309 312 315 316 316 316 317 318 319 321 322 323
290 290 292 293 293 293 294 296 296 294 296 296 295 296 296 297 298 297 299 301 300 298 300 308 310 314 316 317 315 318 319 311 310 313 313 314 315 316 316 317 318 319 321
288 289 290 290 290 291 291 291 292 291 292 293 292 292 292 293 294 295 296 295 294 293 291 296 297 300 303 305 307 312 316 305 308 308 310 311 312 313 314 315 316 317 318
286 287 287 288 288 288 288 288 288 288 289 289 290 290 290 291 291 291 290 291 292 292 288 289 292 294 295 297 299 302 306 312 314 307 307 309 310 310 311 312 313 314 315
284 285 286 286 286 285 286 286 286 286 286 287 288 289 288 289 287 287 288 288 287 289 287 285 288 289 290 293 294 296 299 301 305 307 308 309 309 309 309 309 309 310 310
283 283 284 283 284 284 284 285 285 285 286 286 286 285 285 285 284 284 284 285 286 286 285 284 284 287 289 290 290 292 293 295 297 299 302 303 305 306 308 308 307 307 305
281 282 282 282 283 283 283 283 283 284 284 284 285 284 283 283 281 282 282 282 282 281 281 281 281 283 284 287 288 287 287 290 291 293 295 296 300 302 303 305 304 303 302
280 280 281 281 282 282 283 282 281 282 282 282 282 282 283 282 283 282 281 280 280 279 279 279 279 279 280 281 281 285 284 286 288 289 288 290 293 292 295 301 300 299 301
279 279 279 279 280 281 283 283 281 280 280 279 279 279 280 280 280 280 281 282 281 279 279 278 279 279 280 280 282 282 282 282 280 286 284 285 288 288 290 294 300 301 302
277 277 278 278 278 278 282 282 280 279 278 278 278 277 277 278 278 278 280 280 280 281 281 280 277 277 277 279 280 280 282 282 282 285 285 284 287 287 290 293 297 300 301
276 276 277 277 277 277 280 281 279 278 277 277 277 277 276 277 277 278 277 276 276 276 278 278 277 277 278 280 280 281 282 284 285 286 287 282 286 286 289 292 296 299 299
275 275 276 276 275 275 279 280 277 276 276 275 276 276 276 275 277 279 276 274 273 275 278 278 278 278 279 280 279 276 274 274 274 277 283 284 285 286 287 289 292 296 298
275 275 275 275 275 274 277 279 277 275 274 273 274 274 276 275 277 277 274 272 271 273 272 271 272 273 275 274 276 274 273 270 271 271 279 279 282 284 282 288 289 290 291

GFSMA_sfc_thetae_168.txt.gz
Theta_e
321 320 319 320 319 320 319 318 318 319 320 321 322 321 320 318 316 316 315 316 321 327 330 332 332 332 332 332 332 332 333 332 330 330 328 326 326 325 324 324 324 324 323
324 322 320 320 319 320 320 319 319 318 320 321 321 322 321 319 318 317 317 316 320 324 328 331 332 332 333 332 333 333 334 334 333 332 331 330 328 326 326 325 324 324 324
325 324 322 320 320 320 319 319 318 318 317 318 318 319 319 318 318 317 317 316 317 319 324 328 330 331 332 333 333 333 333 336 335 334 332 331 330 329 328 328 327 327 327
327 324 323 322 322 321 319 317 317 316 315 315 315 315 316 317 317 317 317 317 317 318 320 324 328 329 331 332 333 333 334 335 335 333 333 332 331 330 329 328 328 328 327
330 329 328 327 326 325 324 323 321 320 317 316 316 316 316 316 317 318 317 319 320 320 321 320 321 323 327 330 332 333 334 334 335 334 333 332 332 331 330 329 329 328 328
332 330 329 328 327 326 325 324 323 322 321 320 320 320 320 320 320 319 320 321 320 320 319 318 318 316 319 325 329 331 332 333 333 333 333 332 332 332 330 330 330 329 328
331 331 330 329 327 326 326 325 324 322 322 322 319 320 321 322 321 322 322 322 321 320 321 319 316 316 317 323 326 329 331 333 333 333 332 332 332 333 332 332 330 330 330
330 330 329 329 328 327 327 325 324 322 322 323 319 317 312 316 319 321 322 320 319 321 320 321 318 320 318 320 319 325 328 330 331 330 330 331 331 332 332 332 333 332 330
318 321 324 327 328 327 326 326 324 323 321 321 322 318 311 308 311 315 315 319 320 319 318 317 317 318 318 319 321 322 323 325 327 327 327 327 327 328 329 331 332 333 333
308 311 313 314 314 317 317 320 323 323 321 318 318 320 321 318 310 309 315 314 314 315 315 313 314 316 316 316 314 309 308 314 317 321 323 324 325 326 326 327 329 330 330
302 304 306 306 307 308 311 313 311 312 314 317 315 315 315 315 314 311 306 310 312 313 313 314 314 313 305 303 302 300 304 306 307 306 311 315 319 322 325 326 327 327 330
298 299 301 301 301 303 305 306 306 305 305 305 307 305 302 303 301 303 305 306 303 308 306 312 301 298 296 297 298 296 299 301 301 304 306 308 311 314 317 321 323 324 325
294 295 296 296 297 299 298 299 299 298 298 297 298 296 297 295 297 296 297 294 294 297 300 304 296 293 293 293 294 294 295 297 299 300 302 302 306 307 307 310 312 316 319
292 293 292 292 291 292 292 293 293 294 293 292 292 292 292 293 293 292 292 289 286 289 290 290 294 291 291 291 292 293 292 295 297 297 299 299 302 300 301 303 305 307 309
289 288 288 288 288 289 289 289 290 290 290 290 290 290 290 290 290 290 290 290 288 284 285 290 286 290 289 289 290 289 290 291 294 295 295 296 298 298 299 300 301 302 306
286 286 286 286 286 287 287 288 288 288 288 289 289 287 287 288 288 288 287 287 287 285 283 286 285 286 287 287 288 287 287 290 291 291 292 293 294 295 296 297 298 299 299
284 285 285 285 285 285 286 286 286 287 287 286 286 286 285 286 284 285 286 285 284 283 281 281 284 284 283 283 284 284 285 285 286 288 290 291 292 293 294 294 295 296 297
283 283 284 284 284 284 284 285 285 285 285 284 284 283 283 284 283 284 283 281 282 282 280 278 280 281 281 282 281 281 282 283 283 285 288 290 291 291 292 292 293 293 294
281 282 283 282 282 283 283 284 284 284 283 283 283 281 282 281 279 280 280 279 279 280 279 279 278 280 279 279 277 278 279 280 282 284 286 288 286 288 289 290 291 292 292
280 281 282 282 282 282 282 282 282 282 281 282 281 280 279 278 278 279 279 279 279 278 278 278 278 276 276 277 276 274 274 277 276 279 283 280 282 285 287 289 289 290 291
279 280 280 280 281 281 281 280 280 280 279 278 279 278 278 278 280 280 278 278 277 277 276 275 274 274 273 273 273 274 273 274 274 275 274 275 277 279 281 284 285 287 288
278 279 279 279 279 281 283 282 280 278 278 277 277 277 276 277 278 279 279 279 278 276 275 273 273 272 272 273 273 273 272 270 269 274 272 272 276 276 278 279 282 283 285
278 277 277 278 278 279 282 281 280 278 277 276 276 277 275 276 277 277 277 277 276 278 277 273 271 271 271 272 272 271 271 270 269 271 271 269 274 273 275 276 279 282 285
276 277 277 277 278 279 280 280 278 277 276 275 275 275 274 275 277 276 274 273 274 274 273 273 271 271 273 273 272 271 269 268 268 271 271 268 271 270 272 273 279 282 281
276 276 277 276 277 278 279 278 277 276 274 274 274 274 274 274 277 276 272 272 272 272 272 272 272 273 273 273 273 268 263 262 262 266 271 267 268 268 270 271 275 277 278
276 276 275 276 276 277 279 277 276 275 273 273 273 273 275 275 275 275 271 271 268 269 267 266 266 268 268 268 270 268 266 261 261 260 269 265 266 266 263 270 270 271 271

GFSMA_sfc_thetae_171.txt.gz
Theta_e
320 319 319 319 320 320 319 318 317 318 318 319 320 320 319 319 317 315 314 315 320 325 329 331 332 332 333 332 332 333 334 334 334 332 330 329 328 327 327 325 324 324 323
322 320 319 319 318 318 319 318 318 317 317 318 319 320 320 320 319 317 316 316 320 323 327 330 331 332 333 333 334 334 334 334 335 334 333 332 331 330 328 328 326 325 325
323 323 322 320 320 319 319 318 317 317 316 317 317 319 319 319 318 317 317 316 317 319 323 328 330 331 333 333 334 335 335 335 335 334 334 333 332 332 330 329 329 329 328
325 323 324 323 322 321 319 317 316 316 316 317 316 315 316 316 317 317 317 317 317 319 320 323 326 328 330 332 333 334 334 334 334 334 334 333 333 333 332 330 330 329 329
327 326 327 327 326 325 323 322 321 319 318 318 318 318 318 317 317 318 316 318 319 320 317 319 320 321 324 327 330 332 333 333 333 333 332 332 333 333 332 332 331 330 330
327 328 329 328 327 325 324 324 323 321 321 320 319 320 320 320 321 320 319 320 320 317 317 317 317 317 318 324 327 330 332 331 331 330 331 330 329 332 329 332 332 331 330
329 328 329 328 327 326 326 325 324 322 321 321 319 319 321 323 322 321 322 321 321 321 320 320 319 318 318 321 325 327 329 329 328 328 328 328 328 327 328 328 327 331 331
326 328 327 327 328 326 325 325 324 322 322 322 318 317 313 314 316 320 321 320 319 321 321 321 319 318 316 317 312 309 314 318 319 320 322 323 325 326 327 328 328 328 328
318 322 326 327 325 327 326 326 325 323 321 321 322 318 311 308 310 315 315 319 320 319 318 315 314 312 307 303 300 300 305 308 309 312 313 316 319 322 324 325 326 327 327
309 312 314 316 317 318 319 320 323 323 322 319 319 321 320 317 310 308 314 314 315 314 313 312 303 297 298 300 296 297 300 302 304 305 308 309 313 315 317 319 321 321 323
303 304 305 307 308 311 313 313 313 314 316 317 317 315 315 315 313 310 307 309 312 311 308 299 295 293 294 295 293 294 297 299 300 301 302 303 306 308 307 309 312 315 317
298 299 300 301 303 305 306 306 305 305 306 307 305 305 306 307 303 304 305 302 299 304 301 296 291 291 292 291 292 293 294 296 298 298 299 300 303 302 304 306 308 308 309
295 295 296 297 297 298 299 300 299 299 300 301 300 297 297 296 296 296 297 293 293 294 295 294 290 289 289 289 290 290 291 293 296 296 296 297 298 299 300 302 303 304 305
293 293 292 292 293 293 293 293 293 292 292 292 291 292 291 290 290 290 291 288 285 286 288 288 290 287 287 287 289 288 287 290 293 294 294 295 296 297 298 299 300 300 301
290 289 288 287 288 289 289 289 289 289 289 289 289 289 288 288 289 288 288 288 286 282 283 288 283 286 286 286 286 285 285 287 290 290 292 293 294 295 295 296 297 298 299
286 286 285 286 286 287 287 287 287 288 288 287 286 286 286 286 286 286 286 285 284 284 281 284 283 284 284 284 284 283 284 285 286 287 289 291 292 291 292 294 295 295 296
284 284 284 284 284 285 285 286 286 286 285 284 284 283 283 284 283 283 283 283 281 281 280 279 282 282 282 281 279 280 281 281 281 284 287 290 289 288 289 291 292 293 293
283 283 283 283 283 284 284 284 284 284 283 282 282 282 281 283 281 281 280 280 279 280 280 278 279 279 279 279 277 278 279 280 279 282 286 287 285 286 287 289 289 289 289
281 282 282 282 282 282 283 283 283 283 282 281 281 280 279 280 279 279 278 278 278 280 279 279 277 278 278 277 276 276 277 277 278 280 283 281 282 283 285 286 286 286 286
280 281 281 281 281 281 282 282 282 281 281 280 280 279 278 278 278 278 278 278 278 278 278 277 276 275 276 276 274 273 272 274 274 277 277 277 279 280 282 283 282 282 283
280 280 280 280 280 281 281 280 280 279 279 278 278 278 278 279 281 280 278 277 277 276 276 275 273 273 273 272 271 272 271 272 272 273 272 273 274 275 277 278 278 281 283
279 279 279 280 279 281 284 283 280 278 278 278 276 276 276 277 279 280 279 279 278 275 273 273 272 271 271 272 272 271 270 268 267 273 270 270 273 274 273 274 278 280 283
278 278 278 279 278 280 283 282 280 278 277 276 277 275 275 277 277 276 277 277 277 277 276 272 270 270 270 271 271 270 269 268 267 269 269 268 273 269 272 274 277 280 281
277 277 277 278 278 279 282 281 279 277 276 276 275 275 275 275 277 275 274 273 274 273 272 272 271 271 272 272 271 269 267 265 265 269 271 265 269 268 270 271 276 278 278
276 277 277 279 278 279 281 280 278 276 275 274 275 274 275 275 277 275 273 272 272 271 272 272 272 272 272 272 271 266 261 259 257 264 269 264 266 265 267 268 272 274 275
276 277 277 277 278 278 280 280 278 276 274 274 273 273 276 275 275 273 272 271 269 268 267 265 266 267 268 268 269 266 265 254 257 256 267 263 264 263 260 266 267 268 268

GFSMA_sfc_thetae_174.txt.gz
Theta_e
319 318 318 318 319 320 319 318 318 318 317 317 318 319 318 318 318 317 316 316 320 325 329 332 333 333 333 333 334 335 335 335 335 334 333 332 331 330 329 329 328 327 325
320 319 319 318 317 318 319 319 318 317 316 316 317 318 318 318 318 318 317 317 320 323 327 330 332 333 334 335 335 336 336 335 335 335 334 333 332 332 332 331 330 329 328
321 321 320 319 319 319 318 317 316 316 315 316 316 317 318 318 318 317 317 317 317 319 322 327 329 331 332 333 334 335 335 334 334 333 333 333 333 332 333 332 331 331 330
324 322 321 321 324 323 322 320 320 318 317 318 318 318 319 317 316 316 316 317 318 319 319 322 324 326 328 330 332 333 334 333 333 332 331 331 331 331 331 332 333 331 330
325 324 323 324 326 324 323 322 321 320 319 318 318 319 319 318 318 319 318 319 319 320 319 319 320 320 323 327 329 331 331 331 330 329 329 329 329 329 328 328 330 331 332
326 325 325 325 325 325 324 323 323 321 321 320 319 319 319 320 320 320 319 318 319 318 319 319 319 319 320 324 322 325 326 325 324 324 325 325 326 327 327 328 329 329 329
326 325 326 325 325 324 325 325 323 322 321 321 318 319 320 322 321 319 318 317 318 320 321 321 320 318 314 310 312 316 319 318 319 318 319 320 321 324 325 326 326 327 328
324 326 326 324 324 324 324 324 323 320 321 321 318 317 313 315 314 316 318 317 319 319 319 315 309 306 303 298 301 307 310 313 313 314 314 314 316 317 317 318 320 321 323
320 322 323 323 323 323 323 323 323 322 321 321 322 317 311 309 308 311 314 316 318 316 311 300 298 297 299 294 296 299 303 305 307 308 308 310 311 310 311 312 313 313 315
310 312 314 317 319 321 323 323 323 324 323 320 319 321 320 316 310 308 310 311 312 308 301 295 292 293 294 292 293 296 298 301 301 302 303 306 306 308 309 309 310 310 311
303 305 307 309 310 313 314 315 315 317 321 320 319 316 316 314 314 310 307 308 305 299 294 290 291 289 290 290 289 292 295 298 299 298 300 301 303 304 305 306 307 307 307
298 298 300 302 304 307 308 308 307 308 309 310 310 311 312 310 307 308 307 302 303 297 292 289 287 288 288 288 289 290 293 295 296 297 297 298 299 301 302 304 304 305 305
294 293 295 298 299 300 301 302 302 301 302 302 301 298 298 298 300 300 299 294 294 295 293 288 286 286 287 287 286 287 289 292 294 294 295 296 297 297 298 300 301 302 302
295 294 293 294 294 295 296 296 295 295 295 295 295 293 291 290 290 292 293 290 286 286 288 288 286 284 285 285 285 286 285 289 290 292 293 294 293 293 295 297 298 298 299
290 289 290 290 290 290 290 290 290 289 289 289 288 288 288 287 287 287 287 287 285 282 282 286 282 283 284 283 283 281 283 285 287 289 290 293 291 291 293 294 295 295 296
286 286 286 286 286 287 287 288 287 287 287 286 286 285 284 284 284 284 284 284 284 283 281 283 281 281 282 282 281 280 281 283 283 286 289 290 288 289 290 292 292 292 293
284 284 285 285 285 285 286 286 286 285 284 284 283 283 282 282 281 281 281 281 280 281 280 279 280 280 280 278 278 279 279 279 278 283 287 285 286 287 288 289 289 288 289
283 283 283 283 284 284 285 285 284 283 282 282 282 281 280 282 279 280 280 279 279 279 280 278 278 279 278 277 276 277 278 278 277 280 284 283 284 284 286 286 285 286 286
282 282 283 282 283 283 283 283 283 282 281 281 281 279 279 279 278 278 278 278 278 279 278 278 277 277 277 276 275 276 276 276 277 279 280 280 281 282 283 283 283 283 284
281 281 281 282 282 282 283 282 282 281 281 280 280 280 279 279 278 278 278 278 278 278 277 276 276 275 275 276 274 272 272 274 273 277 276 276 278 279 281 280 280 281 283
281 281 281 280 280 281 282 281 281 280 279 278 278 279 279 279 280 279 277 276 277 276 276 275 273 273 273 272 271 272 271 271 272 272 271 272 273 274 275 275 276 280 283
280 280 280 280 279 281 284 284 281 279 278 277 276 277 277 278 280 281 280 280 278 275 273 273 272 271 271 271 271 271 270 268 267 272 269 270 273 273 271 273 277 279 281
279 278 278 279 279 281 285 284 282 279 278 277 276 276 276 277 276 277 278 279 277 277 275 272 271 270 270 270 270 269 268 267 267 269 269 268 272 269 271 272 275 279 278
277 277 277 278 279 281 284 283 281 278 277 277 276 275 276 276 276 275 274 274 273 272 272 272 271 271 271 271 270 268 266 265 264 268 268 262 268 266 269 270 274 276 276
277 277 278 278 278 280 283 282 279 277 276 275 275 275 275 275 277 276 274 273 272 270 272 272 273 273 272 272 270 265 258 256 256 263 267 264 265 263 265 266 271 272 273
277 278 278 278 278 279 283 282 279 277 275 274 274 275 276 276 276 275 273 272 270 268 267 266 266 267 268 268 268 266 264 254 255 255 266 262 262 262 259 265 267 267 267